Temp
60 60 60 60 60 60 60 60 60 60 60 60 60 60 60 60 59 53 46 58 58 67 69 67 68 68 66 62 65 62 48 44 51 58 60 70 66 80 85 82 83 89 85 88 87
60 60 60 60 60 59 59 59 59 60 60 60 60 60 60 60 52 48 58 67 67 70 66 65 63 65 58 59 61 56 45 51 61 65 63 68 69 75 79 77 80 83 89 89 87
59 59 59 59 59 59 59 59 59 59 60 60 59 59 59 58 47 57 71 67 70 71 68 67 65 63 54 56 57 56 54 62 63 68 70 71 72 75 75 71 75 79 85 87 85
59 59 59 59 59 59 58 58 58 59 59 59 59 59 59 54 52 65 72 71 71 71 68 65 60 52 51 53 60 54 62 66 65 69 67 68 72 73 73 75 81 84 88 88 85
58 58 58 58 58 58 58 58 58 58 58 59 58 58 53 45 46 68 73 72 70 68 64 61 55 52 49 53 57 56 61 66 68 67 69 72 71 72 73 79 83 82 84 85 86
58 58 58 58 58 58 57 57 57 57 58 58 59 59 49 40 64 70 71 69 70 66 65 61 58 59 54 54 53 59 61 64 67 67 69 68 70 70 77 78 80 77 80 84 87
57 57 57 57 57 57 57 57 57 57 58 59 60 58 49 48 66 67 67 63 67 69 65 67 67 62 59 55 62 61 56 62 64 61 61 65 63 67 78 77 76 76 78 79 80
57 57 57 57 57 57 58 57 57 58 59 59 60 57 44 62 61 60 63 66 70 72 71 71 70 63 58 61 62 55 52 46 56 65 65 65 57 70 72 74 75 75 76 79 78
57 56 56 57 57 57 57 57 58 61 59 60 53 49 45 66 65 69 68 67 71 71 70 78 66 59 58 50 45 47 44 47 53 62 63 62 60 71 71 71 71 75 74 76 77
57 56 56 56 57 57 56 56 58 58 59 61 60 48 55 63 73 76 70 73 69 67 64 63 56 49 45 44 39 42 45 48 51 57 60 57 60 69 69 70 70 69 72 75 74
57 56 56 56 56 56 53 48 53 51 51 54 58 54 61 68 74 69 74 70 68 61 50 55 46 44 45 49 51 51 49 48 54 60 59 59 60 64 68 66 70 66 69 68 71
56 56 56 55 55 55 49 52 58 60 48 63 62 62 67 69 60 66 71 59 58 51 54 48 44 53 56 55 52 50 47 47 54 60 58 57 56 62 65 65 70 72 67 73 67
55 55 55 55 55 52 52 58 65 60 47 55 63 63 65 66 60 63 67 62 56 52 51 46 51 60 56 53 51 50 47 48 48 56 59 56 53 57 63 66 68 73 75 74 73
55 55 55 55 50 47 53 64 64 59 37 48 60 62 65 65 60 71 69 59 52 46 50 49 55 55 49 50 55 47 56 55 53 48 42 53 41 54 56 60 65 67 73 73 71
55 55 55 54 43 44 60 59 64 55 27 57 58 69 66 58 59 61 68 60 51 50 49 44 49 50 46 49 52 46 56 51 52 42 39 45 37 46 55 55 60 64 67 71 75
54 55 54 49 44 50 57 58 54 37 27 49 58 54 53 56 55 59 57 63 57 52 50 48 58 53 51 54 54 54 52 46 47 41 33 42 39 45 51 55 61 65 67 71 75
54 54 52 53 46 55 55 52 35 29 51 46 47 52 50 47 49 51 47 43 41 34 38 46 47 54 57 48 53 50 40 32 30 30 31 44 39 44 54 61 64 67 69 67 70
52 52 50 56 50 53 51 42 27 42 44 53 51 50 43 46 46 46 42 38 44 42 35 32 30 49 57 51 45 44 39 33 26 28 32 46 37 45 61 64 65 71 71 69 69
51 48 48 55 59 55 45 30 33 43 49 48 48 41 40 44 43 41 40 39 42 44 32 32 35 49 51 53 50 42 35 44 37 39 33 36 42 51 58 60 63 66 69 64 67
45 40 46 59 59 51 40 37 42 51 51 49 37 41 34 38 37 37 37 44 36 41 44 38 29 46 50 51 49 45 48 32 31 26 26 33 37 41 49 52 57 56 55 56 63
39 39 52 65 56 44 34 39 47 54 50 44 38 38 38 35 37 35 37 44 42 38 44 39 36 40 46 43 39 39 38 37 35 33 28 28 35 46 48 48 49 51 54 56 58
37 34 54 60 40 37 35 44 49 49 49 45 46 42 37 37 33 35 35 41 48 42 37 43 35 31 38 44 47 44 37 40 31 30 35 32 34 48 46 48 50 51 55 59 60
35 35 53 51 30 31 39 44 47 45 46 44 42 43 41 34 30 35 37 48 49 39 38 40 35 26 27 40 45 38 42 40 40 38 32 29 33 50 50 50 51 50 53 57 59
35 33 39 41 41 35 35 38 40 49 46 45 42 43 35 34 39 34 37 45 47 47 49 45 34 31 27 31 39 37 41 42 38 33 37 38 40 47 48 47 50 52 53 53 62
37 33 37 29 33 35 37 39 37 36 44 43 39 39 36 31 33 34 38 40 44 47 45 40 29 34 37 40 41 40 40 41 36 38 34 40 43 47 48 48 49 51 54 52 58
33 32 36 35 37 35 36 33 35 37 37 37 35 40 37 33 34 33 35 36 35 40 37 42 33 32 31 40 42 38 41 43 43 43 41 42 40 51 52 52 51 52 50 53 59
38 39 34 34 32 31 32 34 37 37 40 42 40 37 35 37 40 40 41 41 41 35 33 34 29 30 26 36 36 30 39 42 43 46 46 38 44 50 50 51 51 51 53 53 54
MSLP
1021.70 1021.26 1020.74 1020.22 1019.71 1019.24 1018.77 1018.30 1017.84 1017.36 1016.87 1016.46 1016.10 1015.72 1015.31 1014.84 1014.16 1013.99 1012.56 1009.27 1009.10 1008.83 1008.97 1009.09 1009.30 1009.40 1009.60 1009.82 1009.64 1009.77 1010.33 1009.65 1008.25 1007.15 1005.20 1003.70 1003.10 1001.92 1001.42 1000.82 1000.34 999.94 999.09 998.56 1000.57
1021.63 1021.13 1020.63 1020.08 1019.52 1018.98 1018.46 1017.94 1017.48 1017.02 1016.56 1016.15 1015.82 1015.54 1015.20 1014.57 1013.65 1012.04 1008.26 1008.13 1008.32 1008.38 1009.07 1009.02 1009.20 1009.38 1009.76 1009.50 1009.42 1009.68 1009.42 1007.84 1006.94 1006.26 1005.16 1003.98 1003.23 1003.09 1002.09 1001.01 1000.34 1000.09 999.39 999.83 1000.55
1021.51 1020.93 1020.36 1019.84 1019.31 1018.76 1018.22 1017.67 1017.18 1016.73 1016.20 1015.83 1015.56 1015.31 1015.01 1014.61 1013.34 1008.55 1006.62 1007.41 1007.79 1008.26 1008.60 1008.72 1008.99 1009.30 1009.59 1009.26 1009.08 1008.40 1007.18 1006.63 1005.70 1005.52 1005.17 1004.28 1002.68 1003.26 1002.40 1001.34 1000.73 1000.41 999.69 1000.25 1000.60
1021.31 1020.75 1020.16 1019.53 1018.88 1018.21 1017.70 1017.20 1016.73 1016.28 1015.85 1015.56 1015.32 1015.13 1014.77 1014.80 1011.84 1006.95 1006.61 1006.86 1007.09 1008.00 1008.55 1008.70 1009.06 1009.45 1009.48 1008.78 1008.13 1007.71 1006.38 1006.34 1005.54 1005.20 1004.84 1004.04 1003.21 1002.31 1002.64 1001.56 1000.79 1000.93 1000.13 999.85 1000.58
1021.26 1020.58 1019.92 1019.21 1018.52 1017.83 1017.21 1016.60 1016.02 1015.62 1015.34 1015.11 1015.00 1014.94 1014.72 1014.03 1010.34 1006.74 1006.47 1006.62 1006.82 1007.64 1008.14 1008.66 1008.95 1009.05 1008.86 1008.32 1007.77 1006.71 1006.16 1005.73 1005.13 1004.77 1004.39 1004.17 1002.63 1002.16 1002.20 1001.46 1000.57 1000.96 1000.77 1000.58 1000.32
1021.14 1020.48 1019.76 1018.98 1018.08 1017.27 1016.55 1015.88 1015.34 1014.94 1014.68 1014.56 1014.50 1014.68 1014.67 1012.66 1007.15 1006.53 1006.60 1006.78 1006.69 1007.09 1007.54 1008.04 1008.12 1008.12 1008.36 1007.75 1007.46 1006.23 1005.72 1005.27 1004.67 1004.06 1003.95 1003.68 1002.62 1003.16 1000.09 1000.71 1000.66 1000.70 1000.79 1000.43 1000.19
1020.94 1020.22 1019.42 1018.52 1017.64 1016.76 1015.94 1015.18 1014.59 1013.81 1013.74 1013.80 1013.88 1014.06 1013.67 1008.79 1006.41 1006.60 1007.01 1006.78 1006.53 1006.51 1006.98 1007.15 1007.10 1007.67 1007.46 1007.42 1006.48 1006.13 1005.76 1004.78 1003.79 1003.68 1003.64 1003.60 1002.50 1001.17 999.18 1000.79 1000.50 1000.19 1000.67 1000.29 1000.26
1020.75 1019.93 1019.11 1018.12 1017.00 1016.01 1014.98 1014.21 1013.66 1012.70 1012.48 1013.03 1013.35 1013.49 1011.60 1007.14 1006.63 1006.70 1006.41 1006.51 1006.27 1006.28 1006.18 1006.11 1006.54 1007.04 1007.16 1006.84 1006.30 1006.51 1006.01 1005.08 1003.36 1003.53 1003.50 1003.65 1000.50 999.11 1000.18 1000.47 1000.40 1000.08 1000.25 1000.28 1000.15
1020.54 1019.73 1018.89 1017.84 1016.73 1015.68 1014.41 1013.43 1012.55 1011.82 1012.03 1012.60 1013.09 1013.06 1009.47 1006.48 1006.08 1004.80 1005.40 1005.60 1005.35 1005.46 1005.50 1005.59 1005.82 1006.48 1006.82 1007.12 1007.37 1006.52 1005.75 1004.90 1004.12 1003.44 1003.19 1002.56 999.53 998.69 1000.14 1000.40 1000.02 999.96 1000.15 1000.38 1000.02
1020.21 1019.35 1018.52 1017.38 1016.17 1015.45 1014.03 1012.80 1012.26 1012.20 1012.36 1012.52 1012.25 1012.42 1008.40 1006.09 1005.23 1004.85 1004.59 1004.66 1004.94 1005.19 1005.54 1005.73 1006.09 1006.44 1007.09 1007.56 1006.53 1006.83 1006.16 1005.16 1003.85 1003.49 1003.19 1002.24 999.53 999.80 999.94 999.96 999.74 999.76 999.78 1000.16 1000.16
1020.06 1019.28 1018.17 1017.15 1015.71 1015.03 1014.37 1013.08 1012.55 1012.14 1011.82 1010.96 1009.78 1009.30 1007.28 1005.80 1005.33 1004.55 1004.93 1005.08 1005.19 1005.24 1005.76 1005.91 1006.29 1006.24 1007.08 1007.11 1006.97 1006.80 1006.10 1005.03 1004.07 1003.56 1003.30 1001.68 1000.02 1000.01 999.88 999.70 999.23 999.44 999.40 999.84 999.82
1019.82 1019.21 1018.06 1016.94 1015.33 1014.56 1014.32 1013.62 1012.06 1011.37 1009.54 1008.31 1007.45 1007.16 1006.60 1005.35 1005.17 1004.53 1004.46 1005.32 1005.37 1005.60 1005.70 1006.20 1005.73 1006.12 1006.41 1006.39 1006.42 1006.23 1005.82 1004.70 1004.36 1003.96 1003.37 1001.95 1000.40 1000.10 999.74 999.28 998.61 998.56 998.81 998.64 999.40
1019.66 1018.76 1018.36 1016.49 1014.84 1013.96 1013.92 1012.51 1011.20 1010.75 1010.72 1007.47 1006.29 1005.94 1005.67 1004.48 1005.23 1005.12 1004.58 1004.60 1005.00 1005.23 1005.52 1005.66 1004.55 1004.99 1005.29 1005.43 1005.57 1005.34 1005.02 1004.35 1004.16 1003.82 1003.20 1002.25 1000.57 999.86 999.21 998.71 998.23 997.65 997.45 997.76 998.01
1019.26 1018.51 1017.90 1017.23 1014.79 1014.67 1013.07 1011.33 1010.75 1011.02 1010.82 1008.08 1006.24 1005.87 1005.51 1004.90 1004.84 1005.17 1005.64 1005.80 1006.32 1006.38 1005.92 1005.28 1004.67 1004.92 1005.12 1004.90 1004.86 1004.69 1004.44 1004.39 1004.16 1003.86 1003.42 1002.43 1000.74 999.44 998.99 998.35 997.89 997.40 996.98 996.90 997.01
1018.78 1018.11 1017.19 1017.28 1016.53 1014.98 1012.08 1011.29 1011.09 1011.18 1010.82 1007.48 1006.79 1006.03 1006.70 1006.96 1007.14 1006.01 1006.29 1005.78 1006.02 1006.45 1007.17 1005.64 1005.06 1004.83 1004.67 1004.16 1004.96 1004.76 1004.87 1004.96 1004.76 1004.66 1004.30 1003.00 1002.39 999.62 998.85 998.22 997.62 997.10 996.76 996.45 996.40
1018.28 1017.12 1016.62 1016.07 1016.07 1013.28 1012.17 1011.86 1011.70 1012.16 1010.05 1008.22 1007.61 1006.98 1006.82 1007.23 1007.29 1006.98 1007.12 1006.62 1007.96 1006.85 1006.80 1006.02 1005.10 1004.68 1004.25 1003.85 1004.02 1005.21 1005.09 1005.26 1005.38 1005.36 1004.54 1003.55 1002.93 999.50 998.94 998.04 997.17 996.48 996.24 995.89 995.65
1017.79 1016.31 1015.74 1015.62 1014.20 1012.51 1012.65 1012.51 1012.70 1011.76 1010.02 1009.09 1008.32 1008.39 1008.14 1008.08 1007.53 1007.75 1007.28 1007.51 1008.16 1007.63 1006.72 1006.12 1005.61 1004.50 1003.80 1003.48 1003.13 1004.70 1005.62 1006.06 1005.95 1005.42 1004.38 1003.24 1002.57 1000.35 998.31 997.06 996.58 996.06 995.68 995.66 995.72
1017.34 1015.80 1014.60 1013.95 1012.91 1013.11 1013.36 1013.44 1013.07 1011.53 1010.75 1010.02 1009.23 1009.10 1009.39 1009.38 1009.16 1009.04 1008.80 1008.42 1008.02 1008.07 1007.12 1006.46 1005.89 1003.76 1002.40 1002.51 1002.68 1003.74 1004.86 1006.04 1005.91 1005.00 1004.20 1002.83 1001.60 999.54 996.79 996.64 996.12 995.56 995.32 995.10 995.16
1017.18 1015.45 1014.46 1012.42 1012.04 1013.18 1014.28 1014.25 1013.04 1012.24 1011.57 1010.49 1009.81 1009.70 1010.06 1010.45 1010.70 1010.03 1009.63 1009.01 1009.02 1008.96 1008.70 1007.14 1004.78 1003.24 1002.84 1002.64 1002.95 1003.68 1004.40 1004.65 1005.60 1005.72 1004.35 1002.66 1000.94 998.82 996.57 996.66 996.43 995.77 995.35 995.49 995.40
1018.43 1016.93 1014.67 1012.72 1012.14 1012.98 1014.13 1013.90 1012.99 1012.34 1011.90 1011.27 1011.14 1011.10 1011.07 1010.83 1011.09 1011.10 1009.98 1009.36 1009.87 1010.17 1008.21 1007.59 1006.42 1003.97 1003.74 1003.08 1002.74 1002.82 1003.55 1004.84 1005.18 1005.26 1004.70 1002.62 1000.98 998.18 997.04 996.84 996.54 996.34 996.12 995.76 995.36
1019.06 1017.54 1013.89 1012.64 1012.13 1013.60 1014.68 1014.26 1013.26 1012.63 1012.63 1012.18 1012.38 1011.94 1012.17 1012.12 1011.77 1011.50 1010.54 1009.84 1010.12 1009.94 1008.92 1007.74 1007.19 1005.54 1004.72 1003.36 1002.96 1003.38 1003.90 1004.74 1004.78 1004.92 1004.30 1002.90 1000.11 998.39 997.80 997.99 997.86 997.40 996.81 995.95 995.04
1020.72 1018.57 1014.29 1013.26 1014.54 1015.77 1015.96 1015.31 1014.35 1013.46 1013.00 1012.82 1012.56 1012.68 1012.70 1012.56 1012.42 1011.86 1010.74 1010.20 1009.54 1009.90 1008.38 1007.63 1007.22 1006.21 1004.82 1004.06 1003.58 1003.45 1004.50 1004.42 1004.46 1004.55 1003.68 1002.34 999.67 998.64 998.36 998.26 998.35 997.63 996.81 995.24 994.05
1021.63 1019.53 1015.40 1015.13 1017.14 1017.42 1016.93 1015.84 1014.83 1013.79 1013.23 1013.46 1013.31 1013.15 1013.39 1013.03 1012.85 1011.81 1010.61 1009.25 1009.46 1009.68 1008.93 1007.92 1007.30 1006.92 1005.45 1004.97 1004.18 1004.10 1004.14 1004.30 1004.72 1004.15 1002.91 1002.16 999.62 998.44 998.14 997.89 997.72 997.28 996.65 995.79 994.10
1022.03 1020.66 1018.72 1018.13 1018.92 1018.88 1017.92 1016.63 1015.42 1014.39 1014.02 1014.12 1013.62 1013.56 1013.52 1012.81 1012.24 1011.46 1010.32 1009.34 1009.20 1008.81 1008.46 1007.92 1007.58 1007.21 1006.51 1005.28 1004.81 1004.18 1003.80 1003.80 1004.39 1003.35 1001.85 1000.74 999.80 999.03 998.41 998.48 997.78 996.95 996.04 996.68 994.60
1022.49 1022.18 1021.39 1020.38 1019.96 1019.70 1018.74 1017.65 1016.37 1015.68 1014.90 1014.42 1013.96 1014.10 1013.76 1012.86 1011.46 1010.86 1010.37 1009.58 1009.12 1007.81 1007.92 1007.98 1007.58 1006.92 1006.15 1005.29 1004.56 1003.83 1003.22 1003.05 1003.29 1002.40 1001.70 1000.16 999.47 998.51 998.32 998.23 997.44 997.21 995.50 997.07 996.33
1023.22 1023.25 1022.44 1021.67 1020.78 1020.13 1018.94 1018.31 1017.44 1016.42 1016.20 1014.76 1014.58 1013.58 1013.44 1012.71 1012.07 1010.54 1010.66 1010.13 1009.46 1008.39 1008.08 1008.08 1007.64 1007.30 1005.91 1004.43 1003.79 1003.16 1002.30 1001.96 1001.51 1000.62 1000.21 999.83 998.95 997.94 998.09 997.64 997.35 997.20 996.86 997.03 995.15
1023.74 1023.35 1022.92 1021.96 1021.31 1020.66 1019.62 1019.16 1018.20 1017.56 1015.69 1015.22 1014.42 1013.65 1012.72 1011.70 1011.23 1010.06 1009.19 1008.76 1009.16 1008.96 1008.84 1008.82 1008.20 1007.59 1006.01 1004.43 1003.46 1002.22 1001.35 1000.26 999.49 998.61 998.24 998.73 997.72 997.51 997.99 997.22 997.79 997.52 996.94 996.72 997.24
Wind_Speed
18 18 18 19 19 19 19 19 20 20 21 21 21 21 21 22 24 10 12 17 13 17 2 3 2 2 1 4 5 2 3 7 8 6 7 9 5 3 5 8 4 7 7 17 26
18 18 18 18 19 19 19 19 19 19 19 19 19 19 18 22 20 16 16 14 20 8 5 8 5 4 2 6 4 6 6 12 8 10 8 9 8 8 9 13 10 7 8 22 27
19 20 20 21 21 20 21 21 20 20 20 19 17 17 16 15 9 9 7 19 18 17 7 2 1 3 4 3 6 7 13 10 6 12 12 18 24 5 8 8 3 7 20 23 25
22 23 23 23 24 23 23 22 21 20 20 18 16 15 17 4 6 2 7 10 16 13 7 6 4 4 6 9 9 9 10 15 8 9 8 14 11 21 4 10 7 6 12 25 25
24 25 25 25 26 25 24 25 24 21 19 16 13 11 5 3 15 6 9 7 6 15 13 9 6 6 6 5 6 11 11 10 12 12 17 16 25 24 17 13 13 5 7 16 22
23 25 26 26 27 26 26 24 23 21 19 14 9 5 2 8 6 11 8 6 6 9 10 10 9 9 5 7 6 5 7 15 16 16 15 17 20 5 29 9 11 2 11 14 20
24 25 26 26 27 27 26 25 24 24 19 13 5 5 6 27 5 8 2 4 4 9 8 12 15 6 6 6 10 6 12 15 17 4 6 2 12 24 27 4 10 8 8 9 10
24 25 25 27 28 28 29 28 26 25 16 9 7 6 13 7 5 8 6 8 11 12 11 10 10 11 6 7 12 6 5 8 2 11 5 8 26 30 5 7 12 10 8 9 7
24 24 26 27 29 30 31 30 27 8 5 9 6 3 15 10 5 9 10 5 5 7 6 9 4 6 4 3 5 4 13 13 11 1 6 13 30 30 6 9 11 10 8 9 9
27 27 28 30 32 29 33 27 9 5 4 6 3 3 7 3 4 7 5 8 5 3 3 6 3 4 3 4 16 7 11 8 17 4 6 13 28 19 8 9 13 10 8 9 9
27 27 29 29 32 30 19 7 6 2 1 10 19 15 27 16 16 20 10 7 5 3 6 4 6 14 7 10 11 12 14 14 11 8 11 20 25 18 11 8 14 10 11 10 11
28 27 29 30 34 34 1 4 7 8 11 18 21 20 23 15 9 13 6 6 6 12 5 3 12 9 11 12 12 16 20 23 19 16 15 20 22 13 8 9 15 16 11 15 8
28 29 26 31 36 7 5 6 7 3 5 14 4 3 16 3 5 11 7 6 9 16 12 13 14 8 14 18 17 18 18 18 19 17 18 18 20 14 8 6 8 17 17 18 17
30 29 26 28 10 6 7 6 9 2 4 8 9 5 20 17 4 17 17 3 6 8 8 13 4 9 4 12 15 16 17 17 14 9 12 5 17 17 6 9 9 10 18 17 16
33 30 29 22 6 4 8 9 12 5 4 6 11 4 11 11 15 14 15 10 6 14 4 16 18 14 9 10 4 13 13 5 9 1 2 8 3 6 6 7 9 10 10 15 19
34 34 31 4 2 11 10 13 3 4 8 7 11 16 17 16 16 20 13 10 14 7 11 18 11 7 9 9 10 19 12 6 6 1 6 11 6 13 10 8 8 9 8 13 20
36 37 24 3 6 2 5 5 5 4 12 11 19 14 10 16 21 17 17 15 6 5 12 10 16 18 12 10 13 8 5 2 5 7 5 9 5 13 8 13 14 18 14 10 11
38 34 5 8 8 1 5 6 2 4 7 15 13 9 8 16 14 15 16 17 9 10 9 7 5 10 2 14 9 8 11 5 4 4 6 6 6 14 18 13 8 19 16 9 11
33 7 6 7 9 5 5 4 4 11 17 18 13 9 9 11 6 8 13 9 7 11 7 5 5 6 13 9 7 4 6 12 10 9 1 4 7 11 17 14 14 14 14 9 9
10 5 6 8 2 5 5 6 4 11 11 10 6 4 11 12 7 9 6 3 8 18 6 4 6 3 13 6 6 7 4 3 3 6 5 6 7 11 7 4 6 5 9 8 9
4 6 5 16 3 6 2 3 10 17 13 7 11 7 8 5 6 6 7 12 2 11 14 7 4 3 7 4 2 3 2 4 4 4 5 3 9 1 6 4 7 8 11 15 11
5 5 5 9 7 4 4 11 14 16 9 8 8 6 4 4 4 5 6 12 6 11 7 5 3 4 6 5 3 3 3 1 3 5 5 4 10 1 1 2 4 9 12 20 13
5 5 6 7 6 5 7 12 12 15 14 10 8 5 7 5 5 7 12 7 9 4 6 6 1 3 7 3 3 4 1 2 6 4 9 6 8 1 4 6 7 8 11 13 5
3 5 6 5 3 5 12 7 12 12 8 16 7 5 10 11 9 11 16 8 15 15 17 5 3 5 5 6 7 10 10 7 5 5 7 14 9 12 8 7 10 16 9 15 1
2 3 2 6 7 12 11 10 14 14 10 5 5 13 11 9 19 3 12 14 16 8 4 1 4 3 5 12 16 17 17 15 10 12 8 6 13 8 3 5 4 12 13 17 18
3 4 4 8 6 11 5 7 13 20 13 8 13 20 16 8 13 19 20 14 8 8 3 4 3 3 7 13 9 10 14 17 16 17 14 12 17 6 5 3 4 6 12 24 11
4 4 1 5 5 5 4 14 18 16 9 17 18 15 16 14 19 24 23 22 17 10 6 4 2 3 7 9 14 5 0 13 11 15 19 10 10 4 4 3 2 8 7 19 17
Wind_Direction
345 342 339 334 330 326 322 318 317 317 318 320 320 321 320 319 315 303 241 222 198 221 45 263 258 240 120 219 190 100 150 222 219 232 259 301 297 126 300 284 326 256 186 166 145
342 338 334 329 324 321 318 315 314 312 313 311 313 315 316 320 308 266 242 217 215 171 192 166 175 171 242 204 209 163 196 216 196 222 266 287 284 3 346 317 325 314 110 142 148
343 339 335 332 328 324 320 318 317 314 313 312 312 314 316 325 318 248 232 211 209 217 216 211 163 144 195 205 221 201 230 221 234 232 252 271 278 287 263 290 271 250 154 157 157
344 341 338 334 330 326 323 321 318 314 313 310 310 312 315 310 288 326 159 193 210 197 171 169 180 176 212 203 201 255 239 233 256 261 268 268 299 279 289 259 272 320 203 163 164
343 340 337 333 329 326 323 320 317 313 311 307 305 308 334 265 250 258 175 157 111 162 190 186 170 169 199 221 232 229 236 248 250 241 248 264 259 269 280 263 276 161 230 189 175
341 338 335 331 327 325 321 316 312 306 303 300 299 290 241 281 230 232 189 164 176 157 179 170 193 202 244 223 200 257 234 251 251 253 242 244 265 256 260 222 262 154 243 209 193
338 335 331 328 324 321 317 313 310 300 291 283 258 217 241 243 302 357 282 219 188 186 176 206 222 195 186 289 238 252 267 280 251 222 224 257 275 244 255 188 243 258 211 236 190
335 332 329 326 322 322 318 315 311 299 279 238 200 190 248 266 249 263 193 236 248 226 208 213 210 224 217 266 300 292 250 254 313 239 227 189 261 253 256 212 226 240 212 248 233
332 330 329 326 323 325 321 320 316 316 149 159 140 205 268 286 253 243 182 215 211 217 227 236 228 210 241 230 299 239 256 274 294 208 226 196 255 259 221 222 231 240 187 218 252
332 332 332 329 325 327 323 315 281 104 156 172 218 262 267 292 286 331 191 200 224 233 225 213 218 223 51 122 239 231 260 257 257 190 256 261 261 265 247 229 233 223 212 197 215
330 332 330 328 323 325 333 349 2 336 283 236 260 249 282 279 277 294 305 4 289 199 206 224 198 230 199 225 254 268 274 273 274 261 227 250 265 262 253 228 239 220 226 190 213
330 333 331 329 320 323 333 335 245 260 303 280 266 257 259 257 295 303 241 239 211 237 213 264 239 233 211 233 236 243 254 261 275 267 263 265 268 269 256 237 233 228 222 238 192
329 329 336 326 319 330 275 242 288 357 311 303 239 257 4 50 180 344 29 300 246 237 206 215 226 208 221 232 240 242 242 258 255 262 259 272 275 262 246 254 255 241 223 219 216
328 329 334 336 334 333 285 291 348 63 357 280 6 36 10 341 40 30 1 130 23 348 314 227 262 243 280 291 259 251 261 272 288 256 248 235 262 257 226 229 234 240 232 221 220
326 329 326 329 266 302 262 332 329 59 313 5 27 57 354 31 350 6 348 337 321 303 228 264 282 262 256 238 242 268 287 323 306 303 193 281 249 267 190 245 239 230 233 226 227
325 324 326 337 227 243 305 308 39 70 250 349 15 352 352 8 359 342 351 17 328 312 318 269 271 251 240 247 222 252 259 331 279 181 253 249 186 261 236 214 261 264 266 245 222
324 322 323 237 235 315 326 18 34 221 341 0 338 357 3 350 343 347 344 346 301 295 266 276 261 262 231 255 274 225 104 290 223 214 217 226 255 252 258 242 220 245 248 223 222
324 317 264 225 247 298 34 33 220 39 346 336 331 346 10 0 339 337 327 322 282 280 282 249 241 216 222 211 182 189 165 187 249 181 240 229 203 248 251 262 249 240 247 229 219
325 325 307 263 233 122 66 24 267 348 319 329 328 336 333 353 312 336 323 292 356 350 306 288 251 339 328 243 159 180 167 195 206 258 246 235 281 283 262 263 262 254 244 243 215
324 328 286 298 31 74 78 228 300 317 347 340 345 25 320 333 338 340 303 349 336 322 250 230 286 349 274 294 226 154 157 167 318 186 207 241 243 242 304 253 299 286 297 276 285
6 353 279 333 62 52 63 315 329 352 19 332 345 302 339 331 312 306 274 312 40 304 308 263 204 247 303 246 216 137 205 86 114 164 184 264 255 305 276 16 302 298 298 295 266
351 337 310 350 51 359 343 323 315 339 41 5 300 351 290 295 292 285 263 296 297 310 276 298 171 251 253 320 48 91 79 26 171 214 245 168 249 275 3 340 273 304 317 298 248
321 273 314 49 46 348 320 320 349 338 351 356 304 304 6 283 305 246 279 276 325 271 308 331 297 315 350 242 39 43 339 169 269 249 214 204 266 231 6 340 323 316 328 306 202
341 340 333 26 47 342 332 328 335 354 354 331 288 360 337 308 292 277 288 302 338 314 300 264 225 194 227 248 285 277 264 225 227 273 232 236 276 294 297 323 338 327 0 320 233
33 319 51 316 331 315 326 360 339 351 341 355 308 331 333 293 303 210 317 312 318 289 305 104 244 246 263 269 268 270 273 268 219 232 248 237 228 260 225 267 343 328 330 288 267
41 16 331 292 303 328 333 346 328 337 328 330 323 318 316 280 279 303 303 295 277 292 347 355 279 299 268 270 271 275 275 269 242 229 241 250 275 215 198 217 63 3 303 251 86
327 321 203 280 304 331 287 333 318 337 302 318 313 319 314 296 295 279 269 269 250 268 296 274 255 0 273 316 306 292 97 311 290 218 215 210 228 133 225 62 170 142 86 58 57